Regional Weather Roundup
Issued by NWS

Home | Current Version | Previous Version | Text Only | Print | Product List | Glossary Off
Versions: 1 2 3 4 5 6 7 8 9 10 11 12 13 14 15 16 17 18 19 20 21 22 23 24 25 26 27 28 29 30 31 32 33 34 35 36 37 38 39 40 41 42 43 44 45 46 47 48 49 50

000
ASUS43 KFSD 230210
RWRSD

WEATHER ROUNDUP FOR SOUTH DAKOTA
NATIONAL WEATHER SERVICE SIOUX FALLS SD
900 PM CDT FRI JUL 22 2016

NOTE: "FAIR" INDICATES FEW OR NO CLOUDS BELOW 12,000 FEET WITH NO
SIGNIFICANT WEATHER AND/OR OBSTRUCTIONS TO VISIBILITY.


SDZ001>005-009-010-012>017-230300-
NORTHWEST AND NORTH CENTRAL SOUTH DAKOTA

CITY           SKY/WX    TMP DP  RH WIND       PRES   REMARKS
BUFFALO          N/A     81  57  43 E24G33    29.79S
FAITH            N/A     75  63  66 E18       29.92S
MOBRIDGE       CLOUDY    74  66  76 W17G28    30.03R THUNDER
$$

SDZ012>016-024>037-041>051-057-063-072>074-230300-
SOUTHWEST AND SOUTH CENTRAL SOUTH DAKOTA

CITY           SKY/WX    TMP DP  RH WIND       PRES   REMARKS
RAPID CTY ARPT CLEAR     82  57  42 S17G25    29.92S
PIERRE         MOCLDY    85  71  63 SE12      29.89R
CUSTER         CLEAR     73  53  49 S13G20    30.11F
ELLSWORTH AFB  CLEAR     84  56  37 S22G28    29.91S
PHILIP         CLOUDY    92  58  31 S9        29.91R
PINE RIDGE     CLOUDY    83  53  35 S22G33    29.96F
WINNER         FAIR      89  75  63 SE12      29.92F HX  99
$$

SDZ004>011-016>023-039-040-230300-
NORTHEAST SOUTH DAKOTA

CITY           SKY/WX    TMP DP  RH WIND       PRES   REMARKS
ABERDEEN       CLOUDY    80  71  74 N5        29.97R
WATERTOWN      CLOUDY    82  68  62 SE7       29.97R
BROOKINGS      PTCLDY    81  75  82 SE10      29.94S
SISSETON         N/A     76  71  85 SE3       29.94S
$$

SDZ017-020-022-023-036>040-048>070-230300-
SOUTHEAST SOUTH DAKOTA

CITY           SKY/WX    TMP DP  RH WIND       PRES   REMARKS
SIOUX FALLS    MOCLDY    86  77  74 E12       29.92F HX  97
HURON          CLOUDY    86  75  69 SE9       29.87F HX  95
CHAMBERLAIN    MOCLDY    85  76  74 E7        29.91S HX  95
MITCHELL       CLOUDY    86  77  74 E10       29.89R HX  97
YANKTON        PTCLDY    84  79  84 E6        29.89F HX  96
$$

ABBREVIATIONS USED IN REMARKS
   TC - TEMPERATURE IN CELSIUS
  WCI - WIND CHILL INDEX
   HX - HEAT INDEX
  VSB - VISIBILITY





USA.gov is the U.S. government's official web portal to all federal, state and local government web resources and services.